Location: Vancouver
(49.2500°N, 123.1330°W)
Time: 21:15:40
(UTC-07:00)

BREEZE-M DEB (TANK) - Visible Passes

Search period start: 01 September 2014 00:00
Search period end: 11 September 2014 00:00
Orbit: 277 x 13664 km, 49.6° (Epoch: 30 August)

Date Brightness Start Highest point End Pass type
(mag) Time Alt. Az. Time Alt. Az. Time Alt. Az.
01 Sep 9.5 22:08:24 10° WNW 22:48:14 25° W 23:56:10 10° SW visible
02 Sep 9.2 19:12:05 10° WNW 19:54:24 57° WSW 21:39:54 10° S visible
03 Sep 9.4 20:54:49 10° WNW 21:38:13 36° WSW 23:03:31 10° SW visible
04 Sep 8.9 18:02:03 10° WNW 18:38:42 67° SW 20:30:55 10° SSE visible
04 Sep 9.8 22:46:07 10° WNW 23:14:54 16° W 23:56:57 10° WSW visible
05 Sep 9.3 19:43:09 10° WNW 20:25:51 47° WSW 22:03:10 10° SSW visible
06 Sep 9.6 21:27:59 10° WNW 22:06:28 26° W 23:15:26 10° SW visible
07 Sep 9.1 18:32:28 10° WNW 19:11:24 58° SW 20:57:28 10° S visible
08 Sep 9.5 20:14:33 10° WNW 20:55:42 37° WSW 22:21:48 10° SSW visible
09 Sep 9.9 22:04:25 10° WNW 22:33:14 17° W 23:17:06 10° WSW visible
10 Sep 9.3 19:02:54 10° WNW 19:42:42 48° WSW 21:20:35 10° SSW visible
